When you browse on this site, cookies collect data to enhance your experience and personalize the content and advertising you see.
Visit our Privacy Policy to learn more. By continuing to use the site, you agree to this use of cookies and data.
  • în România
  • Lista ţărilor
  • Pe 7 zile
  • Temperatura apei
  • Hartă satelitară
  • Meteo pe hartă
  • Widget-uri
  • user-avatar
    Intrare

    Meteo pe oră la Kweta

    Astăzi, 16 Iulie, Marţi

    Timp Temperatura Precipitaţii Vânt Presiune Umiditate
    00:00 +25°C° 0 mm 2 m/s 610 mmHg 47%
    01:00 +25°C° 0 mm 2 m/s 610 mmHg 50%
    02:00 +24°C° 0 mm 1 m/s 610 mmHg 53%
    03:00 +23°C° 0 mm 1 m/s 610 mmHg 56%
    04:00 +23°C° 0 mm 1 m/s 610 mmHg 55%
    05:00 +25°C° 0 mm 1 m/s 611 mmHg 47%
    06:00 +27°C° 0 mm 1 m/s 613 mmHg 39%
    07:00 +30°C° 0 mm 1 m/s 614 mmHg 31%
    08:00 +31°C° 0 mm 2 m/s 614 mmHg 25%
    09:00 +34°C° 0 mm 2 m/s 615 mmHg 19%
    10:00 +36°C° 0 mm 2 m/s 616 mmHg 11%
    11:00 +37°C° 0 mm 2 m/s 616 mmHg 11%
    12:00 +38°C° 0 mm 3 m/s 616 mmHg 10%
    13:00 +39°C° 0 mm 3 m/s 616 mmHg 9%
    14:00 +38°C° 0 mm 4 m/s 615 mmHg 11%
    15:00 +38°C° 0 mm 4 m/s 615 mmHg 13%
    16:00 +38°C° 0 mm 6 m/s 615 mmHg 15%
    17:00 +35°C° 0 mm 5 m/s 615 mmHg 21%
    18:00 +33°C° 0 mm 4 m/s 614 mmHg 26%
    19:00 +29°C° 0 mm 3 m/s 614 mmHg 32%
    20:00 +28°C° 0 mm 3 m/s 614 mmHg 39%
    21:00 +27°C° 0 mm 3 m/s 614 mmHg 47%
    22:00 +26°C° 0 mm 2 m/s 614 mmHg 54%
    23:00 +26°C° 0 mm 2 m/s 613 mmHg 57%

    Mâine, 17 Iulie, Miercuri

    Timp Temperatura Precipitaţii Vânt Presiune Umiditate
    00:00 +25°C° 0 mm 2 m/s 613 mmHg 61%
    01:00 +24°C° 0 mm 2 m/s 613 mmHg 65%
    02:00 +24°C° 0 mm 1 m/s 613 mmHg 67%
    03:00 +23°C° 0 mm 1 m/s 613 mmHg 69%
    04:00 +23°C° 0 mm 1 m/s 613 mmHg 71%
    05:00 +25°C° 0 mm 1 m/s 614 mmHg 62%
    06:00 +27°C° 0 mm 1 m/s 615 mmHg 52%
    07:00 +29°C° 0 mm 1 m/s 615 mmHg 42%
    08:00 +31°C° 0 mm 2 m/s 616 mmHg 34%
    09:00 +32°C° 0 mm 2 m/s 617 mmHg 27%
    10:00 +35°C° 0 mm 2 m/s 617 mmHg 19%
    11:00 +36°C° 0 mm 2 m/s 617 mmHg 17%
    12:00 +37°C° 0 mm 3 m/s 617 mmHg 16%
    13:00 +38°C° 0 mm 3 m/s 616 mmHg 15%
    14:00 +37°C° 0 mm 3 m/s 616 mmHg 16%
    15:00 +37°C° 0 mm 4 m/s 616 mmHg 17%
    16:00 +37°C° 0 mm 4 m/s 615 mmHg 18%
    17:00 +35°C° 0 mm 4 m/s 615 mmHg 23%
    18:00 +33°C° 0 mm 3 m/s 614 mmHg 29%
    19:00 +30°C° 0 mm 2 m/s 614 mmHg 34%
    20:00 +29°C° 0 mm 2 m/s 614 mmHg 40%
    21:00 +28°C° 0 mm 2 m/s 614 mmHg 47%
    22:00 +27°C° 0 mm 2 m/s 614 mmHg 53%
    23:00 +26°C° 0 mm 2 m/s 613 mmHg 54%

    Poimâine, 18 Iulie, Joi

    Timp Temperatura Precipitaţii Vânt Presiune Umiditate
    00:00 +26°C° 0 mm 2 m/s 613 mmHg 55%
    01:00 +25°C° 0 mm 1 m/s 613 mmHg 56%
    02:00 +24°C° 0 mm 1 m/s 613 mmHg 57%
    03:00 +24°C° 0 mm 1 m/s 612 mmHg 59%
    04:00 +23°C° 0 mm 1 m/s 612 mmHg 61%
    05:00 +25°C° 0 mm 1 m/s 613 mmHg 51%
    06:00 +27°C° 0 mm 1 m/s 614 mmHg 42%
    07:00 +29°C° 0 mm 1 m/s 615 mmHg 33%
    08:00 +31°C° 0 mm 2 m/s 616 mmHg 26%
    09:00 +34°C° 0 mm 2 m/s 616 mmHg 20%
    10:00 +36°C° 0 mm 2 m/s 617 mmHg 13%
    11:00 +37°C° 0 mm 2 m/s 617 mmHg 13%
    12:00 +38°C° 0 mm 2 m/s 617 mmHg 12%
    13:00 +38°C° 0 mm 2 m/s 617 mmHg 12%
    14:00 +38°C° 0 mm 3 m/s 616 mmHg 13%
    15:00 +38°C° 0 mm 4 m/s 616 mmHg 13%
    16:00 +38°C° 0 mm 4 m/s 615 mmHg 14%
    17:00 +36°C° 0 mm 4 m/s 615 mmHg 19%
    18:00 +33°C° 0 mm 3 m/s 614 mmHg 24%
    19:00 +30°C° 0 mm 2 m/s 613 mmHg 29%
    20:00 +29°C° 0 mm 2 m/s 613 mmHg 35%
    21:00 +28°C° 0 mm 2 m/s 613 mmHg 40%
    22:00 +27°C° 0 mm 2 m/s 613 mmHg 45%
    23:00 +26°C° 0 mm 2 m/s 613 mmHg 47%

    19 Iulie, Vineri

    Timp Temperatura Precipitaţii Vânt Presiune Umiditate
    00:00 +26°C° 0 mm 2 m/s 613 mmHg 49%
    01:00 +25°C° 0 mm 2 m/s 613 mmHg 51%
    02:00 +24°C° 0 mm 1 m/s 613 mmHg 54%
    03:00 +24°C° 0 mm 1 m/s 612 mmHg 57%
    04:00 +23°C° 0 mm 1 m/s 612 mmHg 61%
    05:00 +25°C° 0 mm 1 m/s 613 mmHg 53%
    06:00 +27°C° 0 mm 1 m/s 615 mmHg 46%
    07:00 +29°C° 0 mm 1 m/s 616 mmHg 39%
    08:00 +31°C° 0 mm 1 m/s 616 mmHg 31%
    09:00 +34°C° 0 mm 2 m/s 617 mmHg 24%
    10:00 +36°C° 0 mm 2 m/s 618 mmHg 16%
    11:00 +37°C° 0 mm 2 m/s 617 mmHg 15%
    12:00 +38°C° 0 mm 3 m/s 617 mmHg 14%
    13:00 +39°C° 0 mm 3 m/s 617 mmHg 13%
    14:00 +39°C° 0 mm 3 m/s 617 mmHg 15%
    15:00 +38°C° 0 mm 4 m/s 616 mmHg 17%
    16:00 +38°C° 0 mm 4 m/s 616 mmHg 19%
    17:00 +36°C° 0 mm 4 m/s 615 mmHg 26%
    18:00 +33°C° 0 mm 3 m/s 615 mmHg 33%
    19:00 +30°C° 0 mm 3 m/s 614 mmHg 39%
    20:00 +29°C° 0 mm 3 m/s 614 mmHg 44%
    21:00 +28°C° 0 mm 3 m/s 614 mmHg 48%
    22:00 +27°C° 0 mm 3 m/s 614 mmHg 53%
    23:00 +26°C° 0 mm 3 m/s 614 mmHg 54%

    20 Iulie, Sâmbătă

    Timp Temperatura Precipitaţii Vânt Presiune Umiditate
    00:00 +26°C° 0 mm 2 m/s 614 mmHg 56%
    01:00 +25°C° 0 mm 2 m/s 613 mmHg 58%
    02:00 +25°C° 0 mm 2 m/s 613 mmHg 61%
    03:00 +24°C° 0 mm 2 m/s 613 mmHg 64%
    04:00 +24°C° 0 mm 2 m/s 613 mmHg 67%
    05:00 +25°C° 0 mm 2 m/s 614 mmHg 62%
    06:00 +27°C° 0 mm 2 m/s 615 mmHg 56%
    07:00 +28°C° 0 mm 2 m/s 616 mmHg 51%
    08:00 +30°C° 0 mm 2 m/s 616 mmHg 41%
    09:00 +34°C° 0 mm 2 m/s 617 mmHg 32%
    10:00 +36°C° 0 mm 3 m/s 618 mmHg 23%
    11:00 +37°C° 0 mm 3 m/s 618 mmHg 20%
    12:00 +38°C° 0 mm 3 m/s 618 mmHg 18%
    13:00 +39°C° 0 mm 3 m/s 618 mmHg 15%
    14:00 +39°C° 0 mm 3 m/s 617 mmHg 18%
    15:00 +38°C° 0 mm 3 m/s 617 mmHg 20%
    16:00 +38°C° 0 mm 4 m/s 616 mmHg 23%
    17:00 +36°C° 0 mm 4 m/s 616 mmHg 29%
    18:00 +34°C° 0 mm 3 m/s 615 mmHg 36%
    19:00 +30°C° 0 mm 3 m/s 614 mmHg 43%
    20:00 +29°C° 0 mm 3 m/s 614 mmHg 47%
    21:00 +28°C° 0 mm 3 m/s 614 mmHg 51%
    22:00 +27°C° 0 mm 3 m/s 614 mmHg 55%
    23:00 +27°C° 0 mm 2 m/s 614 mmHg 57%

    21 Iulie, Duminică

    Timp Temperatura Precipitaţii Vânt Presiune Umiditate
    00:00 +26°C° 0 mm 2 m/s 613 mmHg 58%
    01:00 +25°C° 0 mm 1 m/s 613 mmHg 60%
    02:00 +25°C° 0 mm 1 m/s 613 mmHg 62%
    03:00 +24°C° 0 mm 1 m/s 613 mmHg 64%
    04:00 +24°C° 0 mm 1 m/s 612 mmHg 66%
    05:00 +26°C° 0 mm 1 m/s 613 mmHg 58%
    06:00 +27°C° 0 mm 1 m/s 614 mmHg 50%
    07:00 +29°C° 0 mm 2 m/s 615 mmHg 42%
    08:00 +31°C° 0 mm 2 m/s 616 mmHg 35%
    09:00 +34°C° 0 mm 2 m/s 616 mmHg 27%
    10:00 +36°C° 0 mm 3 m/s 617 mmHg 20%
    11:00 +38°C° 0 mm 3 m/s 617 mmHg 18%
    12:00 +39°C° 0 mm 3 m/s 616 mmHg 16%
    13:00 +41°C° 0 mm 4 m/s 616 mmHg 14%
    14:00 +41°C° 0 mm 4 m/s 616 mmHg 14%
    15:00 +40°C° 0 mm 4 m/s 615 mmHg 15%
    16:00 +40°C° 0 mm 4 m/s 615 mmHg 15%
    17:00 +37°C° 0 mm 4 m/s 614 mmHg 22%
    18:00 +34°C° 0 mm 3 m/s 613 mmHg 29%
    19:00 +30°C° 0 mm 3 m/s 612 mmHg 36%
    20:00 +29°C° 0 mm 3 m/s 612 mmHg 42%
    21:00 +28°C° 0 mm 3 m/s 612 mmHg 49%
    22:00 +27°C° 0 mm 3 m/s 612 mmHg 56%
    23:00 +27°C° 0 mm 2 m/s 612 mmHg 59%
    Arată mai mult